Location: Fort Worth, Tx
(32.7431°N, 97.3695°W)
Time: 20:02:01
(UTC-05:00)

Tiros 1 - Pass Details

Date: 07 October 2024
Orbit: 622 x 654 km, 48.4° (Epoch: 05 November)

Event Time Altitude Azimuth Distance (km) Brightness Sun altitude
Rises 07:08:33 0° 185° (S) 2,938 10.4 -17.5°
Reaches altitude 10° 07:11:51 10° 161° (SSE) 2,025 9.9 -16.8°
Maximum altitude 07:14:21 14° 128° (SE) 1,747 10.0 -16.3°
Drops below altitude 10° 07:16:50 10° 96° (E) 2,019 11.0 -15.8°
Sets 07:20:07 0° 72° (ENE) 2,923 12.1 -15.1°
